[[{"header":{"parameterUnit":"m.s-1","parameterCategory":1,"la1":30.2991,"la2":30.254,"lo1":-89.0895,"lo2":-89.0444,"dy":0.0017,"dx":0.0017,"nx":28,"ny":28,"refTime":"2023-11-15T03:00:00:Z","depth":0,"parameterNumber":2,"parameterNumberName":"U-component_of_WINDS"},"data":[0,0,0,0,0,0,0,0,0,0,0,0,0,0,0,0,0,0,0,0,0,0,0,0,0,0,0,0,0,0,0,0,0,0,0,0,0,0,0,0,0,0,0,0,0,0,0,0,0,0,0,0,0,0,0,0,0,0,-3.9774,-3.9776,0,-3.9974,-3.9976,-3.9979,-3.9961,-3.9958,-3.9955,-3.9952,-4.0159,-4.0168,-4.0176,0,0,0,0,0,0,0,0,0,0,0,0,0,-3.938,-3.9388,-3.9774,-3.9777,-3.9779,-3.9974,-3.9976,-3.9979,-3.9962,-3.9958,-3.9954,-3.9951,-4.0157,-4.0167,-4.0177,0,0,0,0,0,0,0,0,0,0,0,0,0,-3.9563,-3.939,-3.9774,-3.9794,-3.9798,-3.9973,-3.9976,-3.998,-3.9963,-3.9958,-3.9953,-3.9949,-4.0153,-4.0166,-4.0178,-4.0347,0,0,-4.0216,-4.0222,0,0,0,0,0,0,0,0,-3.9553,-3.9578,-3.9788,-3.9793,-3.9797,-3.9938,-3.9914,-4.0103,-3.9964,-3.99,-3.9952,-3.9947,-4.009,-4.0107,-4.0155,-4.0357,-4.0366,-4.0217,-4.0225,-4.023,-4.0234,0,0,0,0,0,0,0,-3.954,-3.9569,-3.9853,-3.9791,-3.9797,-3.9794,-3.9815,-3.9949,-4.0018,-3.9905,-3.9904,-3.9928,-4.0091,-4.0143,-4.0159,-4.0369,-4.0217,-4.0228,-4.0236,-4.0241,-4.0722,-4.0727,0,0,0,0,0,0,-3.9522,-3.9558,-3.9847,-3.9859,-3.9661,-3.9805,-3.9828,-3.9898,-4.0017,-4.003,-3.9932,-3.9927,-4.0124,-4.0145,-4.0167,-4.0374,-4.023,-4.0242,-4.0249,-4.0716,-4.0723,-4.0728,0,0,0,0,0,0,-3.9514,-3.9548,-3.9839,-3.9709,-3.9745,-3.9816,-3.9895,-3.9904,-3.9955,-4.0037,-4.0049,-3.9972,-4.0121,-4.0149,-4.0303,-4.0381,-4.0248,-4.0259,-4.071,-4.0718,-4.0726,-4.079,0,0,0,0,0,0,-3.9503,-3.9545,-3.961,-3.971,-3.9752,-3.9971,-3.9899,-3.9911,-3.9977,-3.9972,-4.0077,-4.0091,-4.0119,-4.0284,-4.0315,-4.0396,-4.0269,-4.0704,-4.0714,-4.0723,-4.0781,-4.0799,-4.0814,0,0,0,0,0,-3.9489,-3.962,-3.9613,-3.9648,-3.9834,-3.9975,-3.9999,-4.0029,-3.9983,-4.0049,-4.0101,-4.0087,-4.0367,-4.03,-4.0335,-4.0421,-4.0699,-4.0711,-4.0722,-4.0773,-4.0795,-4.0814,0,0,0,0,0,0,-3.9527,-3.9633,-3.9627,-3.9794,-3.9876,-3.9972,-4.0056,-4.0051,-4.0148,-4.0139,-4.0173,-4.0197,-4.0352,-4.0401,-4.0325,-4.0591,-4.0527,-4.0546,-4.0554,-4.0575,-4.0591,-4.0577,-4.0279,0,0,0,0,0,-3.9555,-3.9659,-3.9747,-3.9886,-3.9927,-3.9985,-4.0047,-4.0063,-4.0149,-4.0184,-4.0248,-4.0333,-4.044,-4.051,-4.0613,-4.0787,-4.0811,-4.0864,-4.088,-4.0893,-4.091,-4.1008,-4.1033,-4.0767,-4.0767,-4.0767,0,0,-3.9613,-3.9684,-3.9749,-3.9896,-3.9961,-4.007,-4.0014,-4.0131,-4.0213,-4.0202,-4.0351,-4.0401,-4.0498,-4.0663,-4.0739,-4.0709,-4.0989,-4.0908,-4.0918,-4.0928,-4.1023,-4.1048,-4.107,-4.0775,-4.0774,-4.0773,0,0,-3.9776,-3.984,-3.9964,-4.003,-4.0129,-4.0167,-4.0196,-4.0294,-4.0327,-4.0477,-4.0471,-4.0569,-4.0753,-4.0823,-4.0882,-4.1073,-4.1065,-4.1106,-4.1193,-4.1288,-4.1309,-4.1328,-4.1398,-4.1422,-4.1122,-4.1122,-4.1122,0,-3.9837,-4.0001,-4.0028,-4.0147,-4.0213,-4.0207,-4.0334,-4.0397,-4.0525,-4.0571,-4.0535,-4.0767,-4.0832,-4.1014,-4.1061,-4.1108,-4.1145,-4.1094,-4.1303,-4.1323,-4.1341,-4.1408,-4.1434,-4.1126,-4.1126,-4.1125,-4.1125,0,-4.0072,-4.0185,-4.0273,-4.0397,-4.0472,-4.0595,-4.0642,-4.0715,-4.0724,-4.0766,-4.092,-4.0997,-4.1117,-4.1161,-4.1171,-4.1346,-4.1324,-4.1296,-4.1232,-4.137,-4.1434,-4.146,-4.1133,-4.1131,-4.113,-4.1129,0,0,-4.0265,-4.0403,-4.0435,-4.0492,-4.0601,-4.069,-4.0812,-4.0929,-4.0992,-4.108,-4.1185,-4.1341,-4.1315,-4.1383,-4.1401,-4.1484,-4.1633,-4.1446,-4.1449,-4.148,-4.1833,-4.1855,-4.1884,-4.1627,-4.1632,-4.1636,-4.1825,0,-4.0441,-4.0657,-4.0686,-4.0878,-4.0985,-4.0981,-4.1088,-4.1167,-4.121,-4.1307,-4.1353,-4.1464,-4.1421,-4.1462,-4.1544,-4.1597,-4.1705,-4.1584,-4.1727,-4.1732,-4.1705,-4.1917,-4.1941,-4.2116,-4.185,-4.1854,-4.1857,0,-4.0675,-4.077,-4.0973,-4.1069,-4.1115,-4.121,-4.132,-4.1412,-4.1503,-4.1528,-4.1604,-4.1612,-4.174,-4.1669,-4.1848,-4.1765,-4.1825,-4.186,-4.1868,-4.1884,-4.1804,-4.1941,-4.2172,-4.2199,-4.1897,-4.1894,-4.1891,0,-4.0798,-4.0977,-4.1122,-4.117,-4.1286,-4.1353,-4.1404,-4.149,-4.1559,-4.1655,-4.17,-4.181,-4.1871,-4.1956,-4.1994,-4.1939,-4.2171,-4.2103,-4.2197,-4.2196,-4.2248,-4.2244,-4.2494,-4.2283,-4.2283,-4.2282,-4.2282,0,-4.0993,-4.1118,-4.1179,-4.1269,-4.1409,-4.1441,-4.1579,-4.1628,-4.1705,-4.1805,-4.1808,-4.1902,-4.1945,-4.2046,-4.2076,-4.2221,-4.2248,-4.2273,-4.228,-4.2274,-4.2271,-4.2315,-4.2305,-4.2289,-4.2288,-4.2286,-4.2285,0,-4.1155,-4.1201,-4.1359,-4.1455,-4.1482,-4.1582,-4.1665,-4.1752,-4.1793,-4.192,-4.1951,-4.2016,-4.2136,-4.2181,-4.2327,-4.2347,-4.2515,-4.2511,-4.2484,-4.2487,-4.2579,-4.257,-4.2867,-4.2908,-4.2668,-4.2671,-4.2672,0,-4.1277,-4.1373,-4.148,-4.1546,-4.16,-4.1708,-4.1778,-4.1813,-4.1886,-4.1997,-4.2072,-4.219,-4.2287,-4.2478,-4.2539,-4.2651,-4.2651,-4.2747,-4.2668,-4.266,-4.2655,-4.265,-4.2661,-4.2763,-4.2765,-4.2767,-4.2769,0,-4.149,-4.1508,-4.1608,-4.1718,-4.1801,-4.1889,-4.1974,-4.2029,-4.2078,-4.216,-4.2282,-4.2357,-4.2505,-4.2624,-4.2739,-4.2793,-4.279,-4.2793,-4.2821,-4.2817,-4.2798,-4.2812,-4.2527,-4.2786,-4.2784,-4.2783,-4.2782,-4.2782,-4.1637,-4.1723,-4.1812,-4.1924,-4.1992,-4.2072,-4.2159,-4.2211,-4.2313,-4.2437,-4.2451,-4.2583,-4.2672,-4.2826,-4.2885,-4.2989,-4.2964,-4.3004,-4.3015,-4.3024,-4.3032,-4.278,-4.301,-4.301,-4.3009,-4.3009,-4.3008,0,-4.1851,-4.1908,-4.2011,-4.2131,-4.222,-4.2208,-4.2302,-4.2378,-4.2493,-4.2576,-4.2671,-4.2812,-4.2927,-4.2997,-4.3113,-4.3183,-4.3185,-4.3213,-4.3209,-4.3222,-4.3047,-4.3012,-4.3209,-4.3209,-4.3209,-4.3209,-4.3209,-4.3209,-4.1973,-4.2119,-4.2148,-4.2327,-4.2384,-4.2512,-4.2567,-4.2641,-4.2708,-4.2865,-4.296,-4.3005,-4.3084,-4.3206,-4.3311,-4.3329,-4.3373,-4.3403,-4.3419,-4.3255,-4.3234,-4.3214,-4.3182,-4.3412,-4.3412,-4.3586,-4.3587,-4.3588]},{"header":{"parameterUnit":"m.s-1","parameterCategory":1,"la1":30.2991,"la2":30.254,"lo1":-89.0895,"lo2":-89.0444,"dy":0.0017,"dx":0.0017,"nx":28,"ny":28,"refTime":"2023-11-15T03:00:00:Z","depth":0,"parameterNumber":3,"parameterNumberName":"V-component_of_WINDS"},"data":[0,0,0,0,0,0,0,0,0,0,0,0,0,0,0,0,0,0,0,0,0,0,0,0,0,0,0,0,0,0,0,0,0,0,0,0,0,0,0,0,0,0,0,0,0,0,0,0,0,0,0,0,0,0,0,0,0,0,-7.4624,-7.4623,0,-7.4603,-7.4602,-7.4602,-7.446,-7.4456,-7.4453,-7.445,-7.4429,-7.4432,-7.4434,0,0,0,0,0,0,0,0,0,0,0,0,0,-7.4542,-7.4544,-7.4624,-7.4623,-7.4623,-7.4603,-7.4602,-7.4602,-7.446,-7.4456,-7.4452,-7.4448,-7.4428,-7.4431,-7.4435,0,0,0,0,0,0,0,0,0,0,0,0,0,-7.4555,-7.4545,-7.4624,-7.455,-7.4543,-7.4603,-7.4602,-7.4602,-7.4461,-7.4456,-7.4451,-7.4446,-7.4427,-7.4431,-7.4435,-7.4564,0,0,-7.4447,-7.4449,0,0,0,0,0,0,0,0,-7.4554,-7.4558,-7.4561,-7.4555,-7.4548,-7.4528,-7.4566,-7.4589,-7.4463,-7.4493,-7.445,-7.4444,-7.4466,-7.4467,-7.4474,-7.4563,-7.4562,-7.4448,-7.445,-7.4452,-7.4453,0,0,0,0,0,0,0,-7.4554,-7.4558,-7.4615,-7.4561,-7.4553,-7.4518,-7.4514,-7.457,-7.4509,-7.449,-7.4479,-7.4479,-7.4462,-7.4471,-7.4473,-7.4562,-7.4448,-7.4451,-7.4454,-7.4455,-7.4755,-7.476,0,0,0,0,0,0,-7.4563,-7.4558,-7.4616,-7.4615,-7.4538,-7.4524,-7.4519,-7.454,-7.4508,-7.4498,-7.4483,-7.4472,-7.4467,-7.4468,-7.4472,-7.462,-7.4452,-7.4456,-7.4458,-7.4749,-7.4756,-7.4762,0,0,0,0,0,0,-7.4562,-7.4569,-7.4617,-7.4584,-7.4587,-7.4531,-7.4555,-7.4542,-7.4551,-7.4503,-7.4491,-7.4503,-7.4463,-7.4466,-7.4542,-7.4617,-7.4457,-7.4461,-7.4743,-7.4751,-7.4759,-7.4918,0,0,0,0,0,0,-7.456,-7.457,-7.4618,-7.4586,-7.4589,-7.4688,-7.456,-7.4546,-7.4558,-7.4544,-7.4519,-7.451,-7.4459,-7.4537,-7.4546,-7.462,-7.4464,-7.4736,-7.4746,-7.4756,-7.4906,-7.4931,-7.4953,0,0,0,0,0,-7.4558,-7.4664,-7.4621,-7.4629,-7.4649,-7.4692,-7.4694,-7.4633,-7.4565,-7.4613,-7.4582,-7.4511,-7.4608,-7.4546,-7.4555,-7.4631,-7.473,-7.4743,-7.4755,-7.4896,-7.4926,-7.4952,0,0,0,0,0,0,-7.4707,-7.4659,-7.4611,-7.471,-7.4707,-7.4668,-7.4727,-7.4667,-7.4683,-7.4669,-7.4592,-7.4588,-7.4675,-7.466,-7.4592,-7.4754,-7.4657,-7.4672,-7.476,-7.4789,-7.4812,-7.4813,-7.4468,0,0,0,0,0,-7.4752,-7.4792,-7.4747,-7.4839,-7.4839,-7.4784,-7.4801,-7.4754,-7.4747,-7.4745,-7.4719,-7.4716,-7.4745,-7.4766,-7.4791,-7.4903,-7.4896,-7.4961,-7.4984,-7.5003,-7.5017,-7.5075,-7.5103,-7.4803,-7.4803,-7.4802,0,0,-7.4845,-7.4823,-7.4853,-7.4868,-7.486,-7.4903,-7.4784,-7.4834,-7.4865,-7.4752,-7.4822,-7.4804,-7.4795,-7.489,-7.493,-7.488,-7.5098,-7.5019,-7.5035,-7.5038,-7.5091,-7.512,-7.5145,-7.4811,-7.481,-7.4808,0,0,-7.5035,-7.5023,-7.5098,-7.5092,-7.508,-7.5043,-7.5061,-7.5032,-7.5015,-7.5084,-7.5001,-7.5036,-7.5089,-7.5086,-7.5091,-7.5281,-7.5216,-7.5291,-7.5412,-7.547,-7.5494,-7.5514,-7.5582,-7.5607,-7.5305,-7.5305,-7.5305,0,-7.5152,-7.5212,-7.5144,-7.52,-7.5209,-7.5109,-7.5184,-7.5182,-7.518,-7.5189,-7.5133,-7.5196,-7.5183,-7.5276,-7.5322,-7.533,-7.5348,-7.5293,-7.5496,-7.5516,-7.5534,-7.5597,-7.5623,-7.5314,-7.5313,-7.5312,-7.5311,0,-7.5356,-7.5399,-7.5461,-7.5461,-7.5477,-7.5543,-7.5485,-7.551,-7.5461,-7.543,-7.5502,-7.5482,-7.5501,-7.552,-7.5473,-7.5606,-7.5575,-7.5509,-7.541,-7.5573,-7.5631,-7.5655,-7.5327,-7.5324,-7.5321,-7.5319,0,0,-7.564,-7.5601,-7.5625,-7.5624,-7.5604,-7.5636,-7.5697,-7.5715,-7.5738,-7.574,-7.5789,-7.5836,-7.5774,-7.578,-7.5732,-7.5783,-7.5934,-7.571,-7.5709,-7.5752,-7.608,-7.613,-7.6159,-7.5891,-7.5896,-7.5899,-7.6081,0,-7.5823,-7.5924,-7.5864,-7.5975,-7.6014,-7.5919,-7.5972,-7.5966,-7.5939,-7.5968,-7.5937,-7.5972,-7.5887,-7.5891,-7.5937,-7.5906,-7.5999,-7.5892,-7.5937,-7.5939,-7.5942,-7.619,-7.6243,-7.6415,-7.6103,-7.6107,-7.611,0,-7.6049,-7.606,-7.6175,-7.6147,-7.6161,-7.621,-7.6221,-7.625,-7.6242,-7.6218,-7.6225,-7.6165,-7.6223,-7.6125,-7.6204,-7.6133,-7.6148,-7.6136,-7.6141,-7.6142,-7.6034,-7.6198,-7.6469,-7.6495,-7.6145,-7.6142,-7.614,0,-7.6245,-7.6289,-7.6362,-7.6364,-7.6334,-7.637,-7.6359,-7.6345,-7.6359,-7.637,-7.6378,-7.6396,-7.6406,-7.6421,-7.6367,-7.63,-7.6453,-7.6351,-7.6435,-7.6437,-7.6472,-7.647,-7.6748,-7.6482,-7.6481,-7.6481,-7.648,0,-7.6455,-7.6529,-7.645,-7.6496,-7.6575,-7.6506,-7.6587,-7.6566,-7.6554,-7.6594,-7.6513,-7.6553,-7.6479,-7.6511,-7.647,-7.6541,-7.6547,-7.6529,-7.6517,-7.6536,-7.6539,-7.6545,-7.6532,-7.6488,-7.6486,-7.6485,-7.6484,0,-7.6687,-7.6637,-7.6712,-7.6676,-7.6669,-7.673,-7.67,-7.674,-7.6707,-7.6759,-7.6767,-7.6715,-7.6749,-7.6696,-7.6724,-7.6696,-7.6796,-7.6765,-7.6799,-7.679,-7.6877,-7.687,-7.7169,-7.7205,-7.6916,-7.6919,-7.6921,0,-7.6825,-7.6879,-7.685,-7.687,-7.6864,-7.6898,-7.6912,-7.6846,-7.6865,-7.6859,-7.6901,-7.6927,-7.6945,-7.7003,-7.6968,-7.6989,-7.6959,-7.7062,-7.6961,-7.6979,-7.696,-7.6958,-7.6963,-7.7083,-7.7086,-7.7089,-7.7092,0,-7.7074,-7.7046,-7.7069,-7.7085,-7.7104,-7.7113,-7.7116,-7.7137,-7.7068,-7.7092,-7.7125,-7.7139,-7.7167,-7.7195,-7.7207,-7.7196,-7.7133,-7.7124,-7.7144,-7.7164,-7.7181,-7.7173,-7.6855,-7.7117,-7.7114,-7.7113,-7.7111,-7.711,-7.7262,-7.7306,-7.7292,-7.7321,-7.7316,-7.7321,-7.7357,-7.7328,-7.7354,-7.7371,-7.7331,-7.7374,-7.7364,-7.7373,-7.7369,-7.7402,-7.7357,-7.7387,-7.7394,-7.7403,-7.7417,-7.7176,-7.7404,-7.7403,-7.7403,-7.7402,-7.7401,0,-7.7507,-7.7493,-7.752,-7.7527,-7.755,-7.7487,-7.7487,-7.7511,-7.7549,-7.7545,-7.7563,-7.7602,-7.7628,-7.7596,-7.7616,-7.7649,-7.7621,-7.7657,-7.7654,-7.7652,-7.7456,-7.7436,-7.7679,-7.7679,-7.7679,-7.7679,-7.7679,-7.7679,-7.7637,-7.7708,-7.7679,-7.7746,-7.7732,-7.7773,-7.7778,-7.7782,-7.7778,-7.7824,-7.7845,-7.7823,-7.7808,-7.7826,-7.7848,-7.7838,-7.7849,-7.7896,-7.7876,-7.7693,-7.7666,-7.764,-7.7621,-7.7899,-7.7899,-7.8069,-7.807,-7.8072]}]]